[[[{"header":{"parameterUnit":"kt","parameterCategory":2,"dx":1,"dy":1,"la1":30.253999710083008,"la2":30.299108505249023,"lo1":-89.0895004272461,"lo2":-89.04439544677734,"nx":28,"ny":28,"refTime":"2022-10-17T21:00:00:Z","depth":0,"parameterNumber":1,"parameterNumberName":"U-component_of_WINDS"},"data":[0.8702,0.8584,0.8537,0.8379,0.8308,0.8191,0.8132,0.8051,0.7973,0.7824,0.7729,0.7664,0.7562,0.7433,0.7324,0.7296,0.7252,0.7249,0.7216,0.728,0.7285,0.729,0.7316,0.7241,0.7241,0.7156,0.7155,0.7155,0.8763,0.8694,0.8596,0.8467,0.8382,0.8358,0.8252,0.8181,0.8074,0.7976,0.7878,0.774,0.7623,0.7518,0.7395,0.7335,0.7313,0.7305,0.7307,0.7291,0.7358,0.7387,0.7326,0.7326,0.7326,0.7326,0.7326,0.7326,0.8859,0.879,0.8684,0.8576,0.8497,0.841,0.8333,0.8256,0.8155,0.8023,0.7979,0.7855,0.7743,0.7565,0.7491,0.739,0.7387,0.736,0.7353,0.7347,0.7349,0.7481,0.7366,0.7366,0.7366,0.7366,0.7366,0,0.8914,0.8879,0.8779,0.8666,0.8584,0.8489,0.8393,0.8343,0.8242,0.8162,0.8041,0.7962,0.7804,0.7681,0.7551,0.7477,0.7434,0.7423,0.7404,0.7423,0.7461,0.7439,0.7552,0.7425,0.7425,0.7426,0.7426,0.7426,0.9007,0.893,0.8792,0.8729,0.8664,0.8562,0.8489,0.8405,0.8331,0.8197,0.8136,0.8013,0.7909,0.7719,0.7619,0.7498,0.7475,0.7433,0.7455,0.7481,0.7472,0.7477,0.7469,0.7429,0.7429,0.7428,0.7428,0,0.9064,0.8981,0.8844,0.8712,0.8676,0.8599,0.8483,0.8407,0.8336,0.822,0.8188,0.8074,0.7953,0.7859,0.7699,0.7653,0.7521,0.7502,0.7562,0.7552,0.7504,0.751,0.7366,0.7342,0.7421,0.742,0.742,0,0.9108,0.9009,0.889,0.8815,0.8702,0.8619,0.8508,0.8436,0.8336,0.8244,0.8184,0.8097,0.7989,0.7889,0.782,0.7695,0.7664,0.762,0.7603,0.7624,0.763,0.7577,0.758,0.7566,0.7567,0.7568,0.7569,0,0.9204,0.9022,0.8901,0.8844,0.8689,0.8633,0.8564,0.8451,0.8378,0.8268,0.822,0.8096,0.8027,0.7932,0.7845,0.7864,0.7689,0.7696,0.7644,0.7646,0.7606,0.7609,0.751,0.757,0.757,0.757,0.757,0,0.9224,0.912,0.8955,0.8825,0.8779,0.8697,0.8572,0.848,0.8363,0.8315,0.8227,0.8172,0.8055,0.807,0.7905,0.7955,0.7891,0.7838,0.7832,0.7812,0.783,0.7784,0.7702,0.7688,0.78,0.7802,0.7804,0,0.9358,0.9168,0.9094,0.8937,0.8835,0.8775,0.8681,0.858,0.8508,0.8409,0.8327,0.8212,0.8203,0.8153,0.8085,0.7994,0.793,0.8,0.7851,0.7847,0.7885,0.7809,0.7819,0.7732,0.7827,0.7825,0.7823,0,0.9449,0.9261,0.9237,0.9169,0.9022,0.8934,0.8827,0.8696,0.8635,0.8524,0.8429,0.8264,0.8251,0.8167,0.8107,0.804,0.797,0.8032,0.8027,0.8024,0.783,0.7841,0.7827,0.7944,0.7941,0.7939,0.7841,0,0.9498,0.939,0.9324,0.9173,0.9092,0.8986,0.8886,0.8813,0.8766,0.8691,0.8549,0.8433,0.8292,0.825,0.8199,0.8079,0.8082,0.8067,0.8069,0.8021,0.7986,0.7972,0.8131,0.813,0.813,0.813,0,0,0.9645,0.9487,0.9406,0.9298,0.9223,0.9158,0.9055,0.8973,0.8807,0.8755,0.8758,0.8507,0.8411,0.8247,0.8224,0.8166,0.8134,0.8153,0.8045,0.8036,0.8028,0.7992,0.7979,0.8129,0.8129,0.8128,0.8128,0,0.9641,0.9554,0.9454,0.9367,0.9235,0.916,0.9137,0.8992,0.8937,0.8797,0.8739,0.864,0.8438,0.8345,0.8271,0.8173,0.8131,0.8137,0.812,0.8044,0.8036,0.8028,0.7992,0.7981,0.8127,0.8127,0.8127,0,0.9712,0.9609,0.9549,0.9376,0.9287,0.9181,0.9163,0.9051,0.897,0.8894,0.8754,0.8675,0.8539,0.8397,0.8329,0.8327,0.8134,0.8174,0.8174,0.8162,0.8083,0.8074,0.8065,0.8179,0.818,0.818,0,0,0.9722,0.962,0.9477,0.9367,0.9316,0.9202,0.9134,0.9078,0.8961,0.8914,0.8809,0.8694,0.8576,0.8499,0.8382,0.8241,0.8203,0.8185,0.8183,0.8181,0.8169,0.809,0.808,0.8183,0.8183,0.8183,0,0,0.9723,0.9556,0.953,0.939,0.9284,0.9131,0.9066,0.9028,0.8913,0.8912,0.8807,0.8771,0.8636,0.8557,0.8603,0.838,0.8385,0.8372,0.8435,0.8431,0.8428,0.8448,0.856,0,0,0,0,0,0.9667,0.9578,0.9556,0.9518,0.9293,0.9146,0.9116,0.903,0.9038,0.8988,0.8895,0.8854,0.8561,0.8599,0.8559,0.8507,0.8214,0.8209,0.8203,0.8252,0.8248,0.8245,0,0,0,0,0,0,0.9651,0.9604,0.9558,0.9405,0.9353,0.9148,0.9142,0.9116,0.904,0.9036,0.8874,0.8849,0.8769,0.8612,0.8578,0.8531,0.8571,0.8212,0.8207,0.8203,0.825,0.8247,0.8245,0,0,0,0,0,0.9638,0.96,0.9264,0.9405,0.936,0.9225,0.9144,0.9122,0.9062,0.8915,0.8889,0.9004,0.877,0.8735,0.8592,0.8549,0.8594,0.8582,0.8209,0.8205,0.8202,0.8249,0,0,0,0,0,0,0.9628,0.9577,0.9253,0.9236,0.9432,0.9235,0.9201,0.9129,0.8944,0.8918,0.904,0.9038,0.877,0.8742,0.8716,0.856,0.8613,0.8601,0.8593,0.8206,0.8203,0.8201,0,0,0,0,0,0,0.9597,0.9563,0.9245,0.9283,0.927,0.9244,0.9214,0.9078,0.8943,0.9079,0.9072,0.9041,0.8808,0.8747,0.8726,0.8516,0.8628,0.8616,0.8607,0.8602,0.8204,0.8201,0,0,0,0,0,0,0.9581,0.9552,0.9287,0.9277,0.9265,0.9068,0.9121,0.8895,0.8983,0.9088,0.8987,0.899,0.8813,0.879,0.8734,0.8534,0.8521,0.8627,0.8619,0.8613,0.8609,0,0,0,0,0,0,0,0.9568,0.9783,0.9355,0.9271,0.9261,0.908,0.9075,0.907,0.8983,0.8985,0.8987,0.8989,0.8697,0.8684,0.867,0.8547,0,0,0.8629,0.8623,0,0,0,0,0,0,0,0,0.9793,0.9785,0.9354,0.9351,0.9347,0.9079,0.9075,0.9071,0.8983,0.8985,0.8986,0.8988,0.8694,0.8683,0.8672,0,0,0,0,0,0,0,0,0,0,0,0,0,0,0,0.9354,0.9351,0,0.9079,0.9075,0.9072,0.8984,0.8985,0.8986,0.8987,0.8691,0.8682,0.8673,0,0,0,0,0,0,0,0,0,0,0,0,0,0,0,0,0,0,0,0,0,0,0,0,0,0,0,0,0,0,0,0,0,0,0,0,0,0,0,0,0,0,0,0,0,0,0,0,0,0,0,0,0,0,0,0,0,0,0,0,0,0,0,0,0,0,0,0,0]}],[{"header":{"parameterUnit":"kt","parameterCategory":2,"dx":1,"dy":1,"la1":30.253999710083008,"la2":30.299108505249023,"lo1":-89.0895004272461,"lo2":-89.04439544677734,"nx":28,"ny":28,"refTime":"2022-10-17T21:00:00:Z","depth":0,"parameterNumber":2,"parameterNumberName":"V-component_of_WINDS"},"data":[-17.0603,-17.0914,-17.0906,-17.1254,-17.1305,-17.1539,-17.162,-17.1721,-17.1798,-17.2072,-17.2227,-17.2245,-17.2313,-17.249,-17.2653,-17.2655,-17.2725,-17.2842,-17.2825,-17.2314,-17.2243,-17.2174,-17.2101,-17.2858,-17.2859,-17.3354,-17.3359,-17.3362,-17.0228,-17.0283,-17.0466,-17.0636,-17.0791,-17.0673,-17.0796,-17.0932,-17.1144,-17.1241,-17.1393,-17.1631,-17.1816,-17.1844,-17.2017,-17.2156,-17.2108,-17.2204,-17.2192,-17.2204,-17.1658,-17.1582,-17.224,-17.224,-17.224,-17.224,-17.224,-17.224,-16.9542,-16.973,-16.9828,-17.0026,-17.0108,-17.0221,-17.0395,-17.0415,-17.059,-17.0775,-17.0725,-17.0962,-17.1053,-17.1255,-17.1318,-17.1498,-17.1388,-17.1488,-17.1513,-17.1538,-17.1569,-17.0854,-17.1527,-17.1525,-17.1523,-17.1521,-17.152,0,-16.9037,-16.9017,-16.9191,-16.9364,-16.9507,-16.9638,-16.9755,-16.9862,-16.9809,-16.9956,-17.0165,-17.0282,-17.0512,-17.0704,-17.0863,-17.0907,-17.0793,-17.078,-17.0848,-17.0876,-17.0881,-17.088,-16.999,-17.076,-17.0753,-17.0749,-17.0745,-17.0743,-16.8343,-16.8563,-16.866,-16.8784,-16.8846,-16.9046,-16.9161,-16.9098,-16.9223,-16.9355,-16.952,-16.9712,-16.9863,-17.0195,-17.0208,-17.0378,-17.0324,-17.0619,-17.0348,-17.0366,-17.0326,-17.0314,-17.0334,-17.0673,-17.0682,-17.0689,-17.0695,0,-16.7953,-16.7936,-16.8272,-16.8345,-16.8369,-16.8602,-16.866,-16.8842,-16.8839,-16.9088,-16.9141,-16.9136,-16.9339,-16.9305,-16.9529,-16.9504,-16.9877,-16.982,-16.9845,-16.9831,-17.0091,-17.0067,-17.0944,-17.1054,-17.027,-17.0278,-17.0284,0,-16.7353,-16.7643,-16.76,-16.7796,-16.8115,-16.8044,-16.8361,-16.8389,-16.8468,-16.8663,-16.853,-16.8715,-16.8641,-16.882,-16.8784,-16.9082,-16.9125,-16.9122,-16.9109,-16.9134,-16.9135,-16.9196,-16.9159,-16.9071,-16.9067,-16.9063,-16.906,0,-16.6743,-16.706,-16.7379,-16.7447,-16.7553,-16.7703,-16.7752,-16.7839,-16.7953,-16.8092,-16.8164,-16.8332,-16.8423,-16.8553,-16.8505,-16.8322,-16.8869,-16.8608,-16.8866,-16.8868,-16.8989,-16.8982,-16.9768,-16.9054,-16.9053,-16.9051,-16.905,0,-16.6255,-16.6404,-16.687,-16.6953,-16.7038,-16.7247,-16.7409,-16.758,-16.7681,-16.7672,-16.7781,-16.7687,-16.7947,-16.769,-16.8045,-16.7821,-16.7918,-16.7939,-16.7957,-16.7977,-16.769,-16.8137,-16.8891,-16.8967,-16.7996,-16.7987,-16.7979,0,-16.5561,-16.6026,-16.5969,-16.6412,-16.6621,-16.6458,-16.6688,-16.6782,-16.679,-16.6965,-16.697,-16.717,-16.6971,-16.7028,-16.7209,-16.7221,-16.7513,-16.7181,-16.7428,-16.7437,-16.7406,-16.8099,-16.822,-16.873,-16.7867,-16.7878,-16.7887,0,-16.502,-16.5148,-16.5232,-16.5306,-16.5422,-16.5596,-16.5861,-16.6045,-16.6164,-16.6284,-16.6502,-16.6781,-16.6642,-16.6738,-16.6678,-16.6868,-16.7313,-16.6692,-16.6693,-16.6804,-16.7807,-16.792,-16.8006,-16.723,-16.7244,-16.7255,-16.7797,0,-16.4284,-16.4515,-16.4739,-16.491,-16.5039,-16.5314,-16.5281,-16.5419,-16.535,-16.5351,-16.5671,-16.5737,-16.5921,-16.6008,-16.5942,-16.639,-16.6308,-16.6157,-16.5903,-16.6359,-16.6537,-16.6609,-16.5641,-16.5633,-16.5627,-16.5622,0,0,-16.3624,-16.3953,-16.3881,-16.4138,-16.4242,-16.4068,-16.4365,-16.4445,-16.4613,-16.4687,-16.4545,-16.495,-16.501,-16.54,-16.554,-16.5615,-16.569,-16.5532,-16.6143,-16.6201,-16.6255,-16.6446,-16.6522,-16.561,-16.5608,-16.5605,-16.5603,0,-16.3348,-16.342,-16.3717,-16.3798,-16.3915,-16.3903,-16.3975,-16.4059,-16.4073,-16.4387,-16.4235,-16.4422,-16.4748,-16.483,-16.4915,-16.5485,-16.5358,-16.5543,-16.5862,-16.6079,-16.6146,-16.6205,-16.6406,-16.648,-16.5587,-16.5589,-16.5589,0,-16.2808,-16.2873,-16.3013,-16.3245,-16.3319,-16.3538,-16.3265,-16.3508,-16.3668,-16.3461,-16.3775,-16.3807,-16.3914,-16.4289,-16.4456,-16.4331,-16.5059,-16.4823,-16.4862,-16.4879,-16.5087,-16.5167,-16.5239,-16.4294,-16.4289,-16.4285,0,0,-16.2574,-16.2788,-16.2835,-16.3183,-16.324,-16.3226,-16.3339,-16.3281,-16.3384,-16.3426,-16.3464,-16.3567,-16.3754,-16.3879,-16.4053,-16.447,-16.4485,-16.4665,-16.4726,-16.4776,-16.482,-16.5041,-16.512,-16.4269,-16.4269,-16.4268,0,0,-16.246,-16.2531,-16.2443,-16.2843,-16.2948,-16.3015,-16.3227,-16.312,-16.3274,-16.3238,-16.3148,-16.3172,-16.3521,-16.3558,-16.3343,-16.3961,-16.371,-16.3761,-16.3925,-16.4001,-16.4061,-16.4044,-16.3068,0,0,0,0,0,-16.2161,-16.2522,-16.2442,-16.2504,-16.2795,-16.306,-16.3096,-16.3033,-16.2857,-16.3026,-16.304,-16.2898,-16.3423,-16.3231,-16.3291,-16.3531,-16.4057,-16.4095,-16.413,-16.4439,-16.452,-16.4587,0,0,0,0,0,0,-16.2185,-16.2261,-16.2432,-16.2516,-16.258,-16.3046,-16.2734,-16.2726,-16.2837,-16.2806,-16.29,-16.2901,-16.2849,-16.3195,-16.3251,-16.348,-16.3049,-16.4072,-16.4104,-16.4133,-16.4467,-16.4532,-16.4589,0,0,0,0,0,-16.2203,-16.2264,-16.2748,-16.251,-16.2566,-16.2568,-16.272,-16.2711,-16.2795,-16.2818,-16.2815,-16.2737,-16.2857,-16.2899,-16.3228,-16.3457,-16.301,-16.3031,-16.4093,-16.4118,-16.414,-16.4499,0,0,0,0,0,0,-16.2217,-16.2257,-16.2758,-16.2772,-16.237,-16.2541,-16.2566,-16.2699,-16.2798,-16.2799,-16.2649,-16.2624,-16.2868,-16.2898,-16.2932,-16.3452,-16.2978,-16.3,-16.3013,-16.4112,-16.4132,-16.4149,0,0,0,0,0,0,-16.2223,-16.2271,-16.2765,-16.2592,-16.2586,-16.2516,-16.2538,-16.2807,-16.2802,-16.2623,-16.2605,-16.2637,-16.2816,-16.29,-16.2925,-16.3347,-16.2954,-16.2975,-16.2989,-16.2998,-16.4128,-16.4143,0,0,0,0,0,0,-16.2242,-16.2283,-16.2587,-16.2583,-16.2577,-16.2734,-16.2751,-16.3051,-16.2657,-16.2621,-16.262,-16.2603,-16.2822,-16.2845,-16.2921,-16.3334,-16.3343,-16.2955,-16.2969,-16.2979,-16.2985,0,0,0,0,0,0,0,-16.2257,-16.2002,-16.2673,-16.2576,-16.2569,-16.2907,-16.2911,-16.2915,-16.2654,-16.2639,-16.2624,-16.261,-16.2837,-16.286,-16.2882,-16.3323,0,0,-16.2953,-16.2963,0,0,0,0,0,0,0,0,-16.1984,-16.1998,-16.2673,-16.2676,-16.2679,-16.2908,-16.2911,-16.2914,-16.2651,-16.2639,-16.2627,-16.2616,-16.2843,-16.2861,-16.288,0,0,0,0,0,0,0,0,0,0,0,0,0,0,0,-16.2673,-16.2676,0,-16.2908,-16.2911,-16.2913,-16.2649,-16.2639,-16.2629,-16.262,-16.2848,-16.2863,-16.2878,0,0,0,0,0,0,0,0,0,0,0,0,0,0,0,0,0,0,0,0,0,0,0,0,0,0,0,0,0,0,0,0,0,0,0,0,0,0,0,0,0,0,0,0,0,0,0,0,0,0,0,0,0,0,0,0,0,0,0,0,0,0,0,0,0,0,0,0,0]}]]]